This is the latest recevied weather packets stored in our database for station/object HB9MIR-13. If no packets are shown the sender has not sent any weather packets the latest 10 day(s).
| Time | Temp. | Humidity | Pressure | Rain* | Wind** | Luminosity | Snow |
|---|---|---|---|---|---|---|---|
| 1777834342 | 15.56° C | 54% | 1013.2 hPa | 0 mm | - | 1 W/m² | - |
| 1777833654 | 16.11° C | 54% | 1013.2 hPa | 0 mm | - | 2 W/m² | - |
| 1777832966 | 16.11° C | 51% | 1013.1 hPa | 0 mm | - | 5 W/m² | - |
| 1777832291 | 16.11° C | 44% | 1012.9 hPa | 0 mm | - | 10 W/m² | - |
| 1777831589 | 16.67° C | 51% | 1012.9 hPa | 0 mm | - | 19 W/m² | - |
| 1777830902 | 17.22° C | 44% | 1012.9 hPa | 0 mm | - | 27 W/m² | - |
| 1777830213 | 17.22° C | 45% | 1012.9 hPa | 0 mm | - | 39 W/m² | - |
| 1777829526 | 17.78° C | 47% | 1012.9 hPa | 0 mm | - | 49 W/m² | - |
| 1777828839 | 17.22° C | 62% | 1012.9 hPa | 0 mm | - | 65 W/m² | - |
| 1777828151 | 16.67° C | 62% | 1012.9 hPa | 0 mm | - | 55 W/m² | - |
| 1777827476 | 16.67° C | 65% | 1013 hPa | 0 mm | - | 44 W/m² | - |
| 1777826776 | 17.22° C | 57% | 1013.3 hPa | 0 mm | - | 34 W/m² | - |
| 1777826088 | 17.22° C | 60% | 1013.6 hPa | 0 mm | - | 41 W/m² | - |
| 1777825401 | 17.22° C | 58% | 1013.8 hPa | 0 mm | - | 53 W/m² | - |
| 1777824714 | 17.78° C | 53% | 1013.8 hPa | 0 mm | - | 33 W/m² | - |
| 1777823978 | 18.89° C | 45% | 1013.7 hPa | 0 mm | - | 49 W/m² | - |
| 1777823277 | 18.89° C | 42% | 1013.4 hPa | 0 mm | - | 38 W/m² | - |
| 1777822588 | 19.44° C | 41% | 1013.3 hPa | 0 mm | - | 37 W/m² | - |
| 1777821900 | 19.44° C | 39% | 1013 hPa | 0 mm | - | 55 W/m² | - |
| 1777821212 | 20° C | 38% | 1012.9 hPa | 0 mm | - | 86 W/m² | - |
| 1777820524 | 20.56° C | 37% | 1012.6 hPa | 0 mm | - | 165 W/m² | - |
| 1777819835 | 21.67° C | 37% | 1012.3 hPa | 0 mm | - | 154 W/m² | - |
| 1777819099 | 22.22° C | 35% | 1011.7 hPa | 0 mm | - | 182 W/m² | - |
| 1777818398 | 23.33° C | 35% | 1011.6 hPa | 0 mm | - | 378 W/m² | - |
| 1777817715 | 23.89° C | 34% | 1011.3 hPa | 0 mm | - | 368 W/m² | - |
* Rain latest hour (hover to see other rain measurements)
** Current wind speed in m/s (hover to see current wind gust speed)